User: anonymous   Login
Location: Columbia
(38.9520°N, 92.3340°W)
Time: 06:53:40
(UTC-05:00)
Language:

Cosmos 158 Rocket - Orbit

View from above orbital plane
View from above orbital plane
View from above satellite
View from above satellite

Ground track
Ground track

The orbit data is extracted from the following two-line orbital elements,

1 02802U 67045B   15142.65825955  .00000274  00000-0  86921-4 0  9995
2 02802 074.0102 134.8270 0066502 010.0277 350.2188 14.43451255519814
Epoch (UTC): 22 May 2015 15:47:53
Eccentricity: 0.0066502
inclination: 74.0102°
perigee height: 700 km
apogee height: 794 km
right ascension of ascending node: 134.8270°
argument of perigee: 10.0277°
revolutions per day: 14.43451255
mean anomaly at epoch: 350.2188°
orbit number at epoch: 51981

The dashed part of the orbit path shows where the satellite is in the earth's shadow,  

DLR